FENGYUN 1C DEB

Satellite information

Favourite Embed

Satellite Type and Status

DEBRISIN ORBIT

Key statistics

Satellite FENGYUN 1C DEB at a glance.

Uptime

9715

Days in orbit

Revolutions

≈ 14.3

Per day

Orbit

SSO

Sun Synchronous Orbit

Inclination

98.8

Latest

Satellite identification and parameters

Extended collection of information and parameters for FENGYUN 1C DEB.

Object identification

Identified? True

Debris? True

Object name: FENGYUN 1C DEB

International designator: 1999-025ABX

Object number (NORAD): 30360

Object ID (CCSDS): 30360

Country: PEOPLES REPUBLIC OF CHINA (PRC)

Current information (Y/N): Y

RCS size: SMALL

Orbital parameters

Period: 100.948 minutes

Inclination: 98.765 deg

SMA: 7181.651 km

Apoapsis: 826.108 km

Periapsis: 780.923 km

RAAN: 54.747 deg

Eccentricy: 0.00314589

Argument of periapsis: 150.9979 deg

Mean anomaly: 270.3357 deg

Mean motion: 14.26482195 rev/day

Mean motion (dot): 0.00005839 rev/day2

B* drag term: 0.0024281333 1/REarth

Two-line elements (TLE)

Creation date: Dec. 11, 2025, 10:54 a.m.

Reference frame: TEME

Reference center: EARTH

Epoch: Dec. 11, 2025, 3:36 a.m. UTC

TLE line 0: 0 FENGYUN 1C DEB

TLE line 1: 1 30360U 99025ABX 25345.15011953 .00005839 00000-0 24281-2 0 9995

TLE line 2: 2 30360 98.7650 54.7470 0031459 150.9979 270.3357 14.26482195974029

Live tracking on map

Real-time ground track for satellite FENGYUN 1C DEB.

In-orbit conjunctions

A list of the most updated potential collisions computed for object FENGYUN 1C DEB.

Target Orbit TCA Probability of collision Miss distance Type
SL-12 R/B(AUX MOTOR) LEO 2025-09-18 06:26:17 0.000195375 598.0 (m) ROCKET BODY
METEOR 2-7 LEO 2025-06-30 03:21:40 0.0007123246 414.0 (m) PAYLOAD
CZ-6A DEB LEO 2025-02-23 23:14:27 0.0002413577 359.0 (m) DEBRIS

Associated space launch

Chinese polar orbiting meteorological satellite

FENGYUN 1C DEB was lifted into orbit during the mission ‘Long March 4B | Feng Yun 1C’, on board a Long March 4B space rocket.

The launch took place on May 10, 1999, 1:33 a.m. from Launch Complex 7.

For more information about the launch, click the button.

Launch to space Long March 4B | Feng Yun 1C
Long March 4B | Feng Yun 1C

Agency: N/A

Status: Launch Successful

Launch date: May 10, 1999, 1:33 a.m. UTC

Rocket: Long March 4B

Launch pad: Launch Complex 7

Location: Taiyuan Satellite Launch Center, People's Republic of China

...

Latest news about this satellite

There are no fresh news available about this satellite. Check back as we update our databases every day.


Newsletter sign-up

Weekly statistics, charts and insights to help you stay on top of the space industry.